| time (UTC) | temp F | wind direction | speed knots | gust knots | rain 1hr in | rain 24hr in | rain mn in | humidity % | barometer mb |
| 20260502123048 | 60 | 0 | 0.0 | 0.0 | 0.00 | 0.00 | 0.00 | 38 | 1013.9 |
| 20260502121546 | 61 | 0 | 0.0 | 0.9 | 0.00 | 0.00 | 0.00 | 38 | 1013.8 |
| 20260502114603 | 62 | 0 | 0.0 | 3.5 | 0.00 | 0.00 | 0.00 | 35 | 1013.6 |
| 20260502113050 | 62 | 0 | 0.0 | 3.5 | 0.00 | 0.00 | 0.00 | 35 | 1013.5 |
| 20260502111553 | 63 | 111 | 0.9 | 3.5 | 0.00 | 0.00 | 0.00 | 33 | 1013.5 |
| 20260502110137 | 64 | 0 | 0.0 | 3.5 | 0.00 | 0.00 | 0.00 | 31 | 1013.7 |
| 20260502104551 | 65 | 32 | 0.0 | 1.7 | 0.00 | 0.00 | 0.00 | 29 | 1013.7 |
| 20260502103050 | 65 | 41 | 0.0 | 3.5 | 0.00 | 0.00 | 0.00 | 29 | 1013.6 |
| 20260502101612 | 65 | 47 | 2.6 | 7.0 | 0.00 | 0.00 | 0.00 | 30 | 1013.4 |
| 20260502090104 | 66 | 0 | 0.0 | 0.0 | 0.00 | 0.00 | 0.00 | 30 | 1013.2 |
| 20260502070058 | 71 | 0 | 0.0 | 2.6 | 0.00 | 0.00 | 0.00 | 27 | 1013.3 |
| 20260502064551 | 71 | 34 | 1.7 | 6.1 | 0.00 | 0.00 | 0.00 | 27 | 1013.3 |
| 20260502063056 | 71 | 15 | 1.7 | 5.2 | 0.00 | 0.00 | 0.00 | 26 | 1013.2 |
| 20260502061544 | 72 | 13 | 2.6 | 7.0 | 0.00 | 0.00 | 0.00 | 26 | 1013.0 |
| 20260502060049 | 72 | 24 | 2.6 | 6.1 | 0.00 | 0.00 | 0.00 | 26 | 1012.9 |
| 20260502054548 | 72 | 350 | 2.6 | 5.2 | 0.00 | 0.00 | 0.00 | 26 | 1012.8 |
| 20260502053048 | 73 | 19 | 2.6 | 7.0 | 0.00 | 0.00 | 0.00 | 26 | 1012.8 |
| 20260502051610 | 73 | 20 | 2.6 | 4.3 | 0.00 | 0.00 | 0.00 | 26 | 1012.8 |
| 20260502050050 | 73 | 352 | 0.9 | 2.6 | 0.00 | 0.00 | 0.00 | 26 | 1012.8 |
| 20260502044546 | 74 | 0 | 0.0 | 2.6 | 0.00 | 0.00 | 0.00 | 26 | 1012.6 |
| 20260502043047 | 75 | 18 | 0.9 | 2.6 | 0.00 | 0.00 | 0.00 | 24 | 1012.4 |
| 20260502041551 | 76 | 0 | 0.0 | 3.5 | 0.00 | 0.00 | 0.00 | 24 | 1012.2 |
| 20260502040059 | 76 | 335 | 0.9 | 3.5 | 0.00 | 0.00 | 0.00 | 23 | 1012.1 |
| 20260502034548 | 77 | 312 | 0.9 | 2.6 | 0.00 | 0.00 | 0.00 | 23 | 1011.8 |
| 20260502033049 | 78 | 321 | 0.9 | 2.6 | 0.00 | 0.00 | 0.00 | 22 | 1011.7 |
| 20260502031548 | 78 | 0 | 0.9 | 3.5 | 0.00 | 0.00 | 0.00 | 22 | 1011.4 |
| 20260502030050 | 79 | 337 | 0.9 | 3.5 | 0.00 | 0.00 | 0.00 | 21 | 1011.3 |
| 20260502024546 | 80 | 0 | 0.0 | 1.7 | 0.00 | 0.00 | 0.00 | 21 | 1011.0 |
| 20260502023105 | 81 | 344 | 0.9 | 3.5 | 0.00 | 0.00 | 0.00 | 20 | 1010.8 |
| 20260502021549 | 81 | 309 | 0.0 | 2.6 | 0.00 | 0.00 | 0.00 | 20 | 1010.4 |
| 20260502014551 | 83 | 325 | 0.9 | 7.0 | 0.00 | 0.00 | 0.00 | 18 | 1010.3 |
| 20260502013100 | 84 | 22 | 0.9 | 5.2 | 0.00 | 0.00 | 0.00 | 18 | 1010.2 |
| 20260502011547 | 84 | 336 | 3.5 | 7.0 | 0.00 | 0.00 | 0.00 | 17 | 1010.2 |
| 20260502010043 | 85 | 313 | 2.6 | 7.8 | 0.00 | 0.00 | 0.00 | 16 | 1010.2 |
| 20260502004605 | 86 | 292 | 1.7 | 10.4 | 0.00 | 0.00 | 0.00 | 16 | 1010.1 |
| 20260502003045 | 87 | 300 | 2.6 | 13.0 | 0.00 | 0.00 | 0.00 | 16 | 1010.1 |
| 20260502001604 | 87 | 319 | 2.6 | 7.8 | 0.00 | 0.00 | 0.00 | 16 | 1010.1 |
| 20260502000051 | 88 | 267 | 2.6 | 8.7 | 0.00 | 0.00 | 0.00 | 15 | 1010.0 |
| 20260501234550 | 87 | 242 | 4.3 | 11.3 | 0.00 | 0.00 | 0.00 | 14 | 1010.1 |
| 20260501233054 | 88 | 264 | 5.2 | 11.3 | 0.00 | 0.00 | 0.00 | 15 | 1010.2 |
| 20260501231542 | 88 | 333 | 2.6 | 8.7 | 0.00 | 0.00 | 0.00 | 17 | 1010.1 |
| 20260501230049 | 87 | 246 | 3.5 | 9.6 | 0.00 | 0.00 | 0.00 | 17 | 1010.3 |
| 20260501224543 | 88 | 41 | 2.6 | 8.7 | 0.00 | 0.00 | 0.00 | 17 | 1010.3 |
| 20260501223045 | 87 | 132 | 3.5 | 9.6 | 0.00 | 0.00 | 0.00 | 17 | 1010.4 |
| 20260501221545 | 87 | 327 | 3.5 | 9.6 | 0.00 | 0.00 | 0.00 | 18 | 1010.8 |
| 20260501220134 | 86 | 21 | 1.7 | 7.8 | 0.00 | 0.00 | 0.00 | 18 | 1010.8 |
| 20260501214552 | 87 | 321 | 4.3 | 12.2 | 0.00 | 0.00 | 0.00 | 18 | 1011.2 |
| 20260501213058 | 86 | 325 | 3.5 | 7.8 | 0.00 | 0.00 | 0.00 | 19 | 1011.3 |
| 20260501211551 | 86 | 313 | 1.7 | 7.0 | 0.00 | 0.00 | 0.00 | 19 | 1011.6 |
| 20260501204546 | 85 | 304 | 4.3 | 9.6 | 0.00 | 0.00 | 0.00 | 19 | 1011.9 |
| 20260501203044 | 84 | 330 | 2.6 | 7.8 | 0.00 | 0.00 | 0.00 | 20 | 1012.1 |
| 20260501201544 | 84 | 348 | 1.7 | 6.1 | 0.00 | 0.00 | 0.00 | 20 | 1012.3 |
| 20260501200050 | 83 | 325 | 2.6 | 10.4 | 0.00 | 0.00 | 0.00 | 20 | 1012.4 |
| 20260501194549 | 83 | 320 | 4.3 | 9.6 | 0.00 | 0.00 | 0.00 | 21 | 1012.5 |
| 20260501193049 | 82 | 231 | 3.5 | 9.6 | 0.00 | 0.00 | 0.00 | 22 | 1012.8 |
| 20260501191601 | 81 | 348 | 0.9 | 7.0 | 0.00 | 0.00 | 0.00 | 23 | 1012.9 |
| 20260501190101 | 82 | 329 | 2.6 | 7.8 | 0.00 | 0.00 | 0.00 | 24 | 1013.1 |
| 20260501184550 | 82 | 239 | 2.6 | 8.7 | 0.00 | 0.00 | 0.00 | 23 | 1013.5 |
| 20260501183100 | 80 | 217 | 1.7 | 7.8 | 0.00 | 0.00 | 0.00 | 25 | 1013.7 |
| 20260501181607 | 80 | 265 | 1.7 | 7.0 | 0.00 | 0.00 | 0.00 | 25 | 1013.9 |
| 20260501180052 | 79 | 239 | 0.9 | 7.0 | 0.00 | 0.00 | 0.00 | 27 | 1013.9 |
| 20260501174549 | 78 | 300 | 1.7 | 6.1 | 0.00 | 0.00 | 0.00 | 31 | 1014.1 |
| 20260501173100 | 77 | 260 | 1.7 | 7.0 | 0.00 | 0.00 | 0.00 | 33 | 1014.2 |
| 20260501171547 | 76 | 0 | 0.0 | 5.2 | 0.00 | 0.00 | 0.00 | 35 | 1014.2 |
| 20260501170053 | 75 | 275 | 0.9 | 6.1 | 0.00 | 0.00 | 0.00 | 35 | 1014.2 |
| 20260501164551 | 74 | 0 | 0.9 | 2.6 | 0.00 | 0.00 | 0.00 | 37 | 1014.1 |
| 20260501163053 | 74 | 360 | 0.9 | 5.2 | 0.00 | 0.00 | 0.00 | 38 | 1014.2 |
| 20260501161554 | 74 | 342 | 0.9 | 3.5 | 0.00 | 0.00 | 0.00 | 39 | 1014.1 |
| 20260501160122 | 72 | 0 | 0.9 | 4.3 | 0.00 | 0.00 | 0.00 | 43 | 1014.0 |
| 20260501154553 | 71 | 153 | 0.9 | 6.1 | 0.00 | 0.00 | 0.00 | 47 | 1013.9 |
| 20260501153047 | 68 | 175 | 1.7 | 7.0 | 0.00 | 0.00 | 0.00 | 51 | 1013.8 |
| 20260501151547 | 67 | 157 | 3.5 | 7.8 | 0.00 | 0.00 | 0.00 | 54 | 1013.7 |
| 20260501150049 | 65 | 144 | 2.6 | 7.8 | 0.00 | 0.00 | 0.00 | 57 | 1013.5 |
| 20260501144554 | 63 | 153 | 3.5 | 7.0 | 0.00 | 0.00 | 0.00 | 59 | 1013.5 |
| 20260501143107 | 62 | 123 | 5.2 | 8.7 | 0.00 | 0.00 | 0.00 | 60 | 1013.4 |